Date String (YYYY-MM-DD hh:mm:ss) UTC,Instrument flags,Ambient pressure (hPa),Sample flow (lpm),Bypass flow (lpm),Sample temperature (°C),Ambient temperature (°C),ASC tube jacket temperature (°C),LED temperature (°C),Box temperature (°C),Sample RH (%),Span deviation,Mass concentration (μg/m³),Mass concentration (μg/m³),Mass concentration (μg/m³)
DateTimeUTC,F1_M11,P_M11,Q1_M11,Q2_M11,T1_M11,T2_M11,T3_M11,T4_M11,T5_M11,U1_M11,ZSPAN_M11,X0_M11,X2_M11,X1_M11
2022-04-13 10:00:00,,0818.6,4.99,0.00,22.4,21.5,00.0,31.5,24.1,08.0,0000.0,0009.25,0005.00,0004.48
2022-04-13 10:01:00,,0818.6,5.00,0.00,22.4,21.5,00.0,31.5,24.1,07.9,0000.0,0009.77,0005.03,0004.52
2022-04-13 10:02:00,,0818.8,5.00,0.00,22.4,21.4,00.0,31.4,24.0,07.9,0000.0,0010.28,0005.08,0004.56
2022-04-13 10:03:00,,0818.7,4.99,0.00,22.3,21.4,00.0,31.4,24.0,07.9,0000.0,0010.42,0005.15,0004.61
2022-04-13 10:04:00,,0818.7,5.00,0.00,22.3,21.3,00.0,31.4,24.0,07.9,0000.0,0010.19,0005.20,0004.65
2022-04-13 10:05:00,,0818.6,5.00,0.00,22.3,21.4,00.0,31.4,24.0,07.9,0000.0,0010.15,0005.27,0004.70
2022-04-13 10:06:00,,0818.7,5.00,0.00,22.4,22.1,00.0,31.4,24.2,07.9,0000.0,0011.00,0005.32,0004.76
2022-04-13 10:07:00,,0818.8,5.00,0.00,22.5,22.9,00.0,31.5,24.4,07.8,0000.0,0011.53,0005.37,0004.81
2022-04-13 10:08:00,,0818.8,5.00,0.00,22.6,23.2,00.0,31.5,24.5,07.8,0000.0,0011.69,0005.45,0004.86
2022-04-13 10:09:00,,0818.7,5.02,0.00,22.6,22.9,00.0,31.5,24.5,07.8,0000.0,0011.75,0005.51,0004.90
2022-04-13 10:10:00,,0818.7,4.98,0.00,22.6,22.5,00.0,31.5,24.3,07.8,0000.0,0012.19,0005.56,0004.95
2022-04-13 10:11:00,,0818.7,5.01,0.00,22.5,22.2,00.0,31.5,24.2,07.8,0000.0,0011.70,0005.61,0005.00
2022-04-13 10:12:00,,0818.8,5.00,0.00,22.5,22.0,00.0,31.5,24.1,07.8,0000.0,0011.49,0005.67,0005.05
2022-04-13 10:13:00,,0818.8,5.00,0.00,22.5,21.8,00.0,31.5,24.1,07.8,0000.0,0011.33,0005.68,0005.08
2022-04-13 10:14:00,,0818.7,5.00,0.00,22.4,21.7,00.0,31.4,24.0,07.8,0000.0,0011.34,0005.72,0005.10
2022-04-13 10:15:00,,0818.6,4.99,0.00,22.4,21.5,00.0,31.4,24.0,07.8,0000.0,0011.31,0005.74,0005.14
2022-04-13 10:16:00,,0818.6,5.00,0.00,22.3,21.4,00.0,31.4,23.9,07.8,0000.0,0011.35,0005.76,0005.17
2022-04-13 10:17:00,,0818.8,5.01,0.00,22.3,21.3,00.0,31.4,23.8,07.8,0000.0,0010.61,0005.81,0005.20
2022-04-13 10:18:00,,0818.8,5.01,0.00,22.2,21.3,00.0,31.4,23.8,07.8,0000.0,0010.11,0005.84,0005.22
2022-04-13 10:19:00,,0818.7,4.98,0.00,22.3,21.8,00.0,31.4,24.0,07.8,0000.0,0009.96,0005.82,0005.24
2022-04-13 10:20:00,,0818.7,5.01,0.00,22.4,22.7,00.0,31.4,24.2,07.7,0000.0,0009.83,0005.82,0005.28
2022-04-13 10:21:00,,0818.7,5.00,0.00,22.6,23.2,00.0,31.5,24.5,07.7,0000.0,0009.20,0005.82,0005.30
2022-04-13 10:22:00,,0818.7,4.99,0.00,22.6,22.9,00.0,31.5,24.5,07.6,0000.0,0009.18,0005.84,0005.31
2022-04-13 10:23:00,,0818.8,5.01,0.00,22.6,22.5,00.0,31.5,24.4,07.6,0000.0,0009.11,0005.84,0005.33
2022-04-13 10:24:00,,0818.7,5.01,0.00,22.5,22.2,00.0,31.5,24.3,07.6,0000.0,0009.26,0005.86,0005.34
2022-04-13 10:25:00,,0818.7,5.01,0.00,22.5,22.0,00.0,31.4,24.2,07.6,0000.0,0009.70,0005.86,0005.35
2022-04-13 10:26:00,,0818.8,5.00,0.00,22.5,21.7,00.0,31.4,24.2,07.7,0000.0,0009.88,0005.88,0005.36
2022-04-13 10:27:00,,0818.8,5.00,0.00,22.4,21.6,00.0,31.4,24.1,07.7,0000.0,0009.93,0005.94,0005.38
2022-04-13 10:28:00,,0818.8,4.99,0.00,22.4,21.4,00.0,31.4,24.0,07.7,0000.0,0009.95,0005.95,0005.40
2022-04-13 10:29:00,,0818.8,4.99,0.00,22.3,21.4,00.0,31.4,24.0,07.6,0000.0,0010.90,0005.95,0005.41
2022-04-13 10:30:00,,0818.8,5.00,0.00,22.3,21.3,00.0,31.4,23.9,07.6,0000.0,0011.30,0005.95,0005.40
2022-04-13 10:31:00,,0818.8,5.00,0.00,22.3,21.2,00.0,31.4,23.9,07.6,0000.0,0011.41,0005.94,0005.39
2022-04-13 10:32:00,,0818.9,5.00,0.00,22.2,21.2,00.0,31.3,23.8,07.6,0000.0,0011.68,0005.96,0005.38
2022-04-13 10:33:00,,0818.9,5.00,0.00,22.2,21.5,00.0,31.3,23.9,07.6,0000.0,0011.72,0005.96,0005.38
2022-04-13 10:34:00,,0818.9,5.00,0.00,22.3,22.3,00.0,31.4,24.1,07.5,0000.0,0011.80,0005.97,0005.37
2022-04-13 10:35:00,,0818.9,5.00,0.00,22.5,23.1,00.0,31.4,24.4,07.5,0000.0,0011.13,0005.97,0005.36
2022-04-13 10:36:00,,0819.0,5.00,0.00,22.6,23.1,00.0,31.4,24.5,07.4,0000.0,0010.69,0005.97,0005.35
2022-04-13 10:37:00,,0818.9,5.00,0.00,22.6,22.7,00.0,31.4,24.4,07.4,0000.0,0010.49,0005.94,0005.33
2022-04-13 10:38:00,,0818.9,4.99,0.00,22.5,22.2,00.0,31.4,24.3,07.4,0000.0,0010.33,0005.85,0005.30
2022-04-13 10:39:00,,0818.9,5.00,0.00,22.5,21.8,00.0,31.4,24.2,07.4,0000.0,0010.30,0005.81,0005.28
2022-04-13 10:40:00,,0818.9,5.00,0.00,22.4,21.5,00.0,31.4,24.1,07.4,0000.0,0009.56,0005.81,0005.27
2022-04-13 10:41:00,,0818.9,5.00,0.00,22.4,21.3,00.0,31.4,24.0,07.4,0000.0,0009.04,0005.81,0005.27
2022-04-13 10:42:00,,0818.9,5.02,0.00,22.3,21.2,00.0,31.4,24.0,07.4,0000.0,0009.00,0005.82,0005.27
2022-04-13 10:43:00,,0818.9,5.00,0.00,22.3,21.2,00.0,31.4,23.9,07.4,0000.0,0009.36,0005.80,0005.27
2022-04-13 10:44:00,,0818.8,4.99,0.00,22.3,21.2,00.0,31.3,23.9,07.4,0000.0,0009.47,0005.75,0005.26
2022-04-13 10:45:00,,0818.8,5.00,0.00,22.2,21.2,00.0,31.3,23.9,07.4,0000.0,0009.49,0005.72,0005.25
2022-04-13 10:46:00,,0818.9,5.00,0.00,22.2,21.2,00.0,31.3,23.8,07.4,0000.0,0009.47,0005.70,0005.25
2022-04-13 10:47:00,,0818.9,5.00,0.00,22.2,21.1,00.0,31.3,23.8,07.4,0000.0,0009.43,0005.68,0005.25
2022-04-13 10:48:00,,0819.0,5.00,0.00,22.2,21.2,00.0,31.3,23.8,07.4,0000.0,0009.44,0005.69,0005.26
2022-04-13 10:49:00,,0819.0,5.00,0.00,22.2,21.9,00.0,31.3,24.0,07.4,0000.0,0010.12,0005.71,0005.27
2022-04-13 10:50:00,,0819.0,5.00,0.00,22.4,22.8,00.0,31.3,24.2,07.3,0000.0,0010.34,0005.74,0005.26
2022-04-13 10:51:00,,0818.9,5.00,0.00,22.5,23.2,00.0,31.4,24.4,07.3,0000.0,0010.24,0005.73,0005.25
2022-04-13 10:52:00,,0819.0,5.00,0.00,22.6,23.0,00.0,31.4,24.5,07.3,0000.0,0010.30,0005.75,0005.25
2022-04-13 10:53:00,,0819.0,5.01,0.00,22.6,22.7,00.0,31.4,24.4,07.3,0000.0,0010.46,0005.75,0005.25
2022-04-13 10:54:00,,0818.9,5.00,0.00,22.5,22.4,00.0,31.4,24.3,07.3,0000.0,0010.13,0005.76,0005.25
2022-04-13 10:55:00,,0819.0,5.00,0.00,22.5,22.1,00.0,31.4,24.2,07.3,0000.0,0009.73,0005.75,0005.26
2022-04-13 10:56:00,,0818.9,5.01,0.00,22.5,21.9,00.0,31.4,24.2,07.3,0000.0,0009.56,0005.76,0005.27
2022-04-13 10:57:00,,0819.0,5.00,0.00,22.4,21.7,00.0,31.4,24.1,07.2,0000.0,0009.53,0005.78,0005.29
2022-04-13 10:58:00,,0818.9,4.99,0.00,22.4,21.5,00.0,31.4,24.0,07.2,0000.0,0010.00,0005.82,0005.31
2022-04-13 10:59:00,,0819.0,5.01,0.00,22.3,21.4,00.0,31.3,24.0,07.2,0000.0,0010.22,0005.83,0005.31
